sat.trackr.live / text

‹ back to catalog

STARLINK-5696

NORAD 55484 · 2023-015AM

PAYLOAD ACTIVE UNKNOWN

§ Identity

Operator
Country
US
Launch date
2023-02-02
Launch site
AFETR
Launch vehicle
Mass (kg)
RCS (m²)

Purposes: comms

External: N2YO · Heavens-Above · Gunter

§ Orbital elements

Epoch: 2026-09-20T14:47:29.081184Z

Period
94.27 min
Inclination
43.0052°
Eccentricity
0.0001807
Mean motion
15.27570447 rev/d
Perigee alt
481.8 km
Apogee alt
484.3 km
Semi-major
6,861.2 km
B*
-1.7954e-5
RAAN
319.1561°
Arg perigee
285.2588°
Mean anomaly
74.8064°
Rev number
20,040

§ Raw data

STARLINK-56961 55484U 23015AM  26263.61630881 -.00000756  00000+0 -17954-4 0  99982 55484  43.0052 319.1561 0001807 285.2588  74.8064 15.27570447200409

JSON: /api/v1/satellites/55484 · /tle

For live sub-satellite position, see the globe view (requires WebGL).

§ Visibility from observer

Set your observer location to see the next 7 days of passes ≥ 10°. The values pass through the URL so the page stays shareable.

No JS? Fill the form by hand. The geolocation button needs JavaScript.